Погода в Изюме

Погода в Изюме : погода сейчас, прогноз погоды и архив. Всё, что Вы хотите узнать о погоде в Изюме!

Хотите узнать прогноз погоды в Изюме? Тогда Вам сюда: Погода в Изюме

Поиск расширенной информации на нашем сайте:

Полезная информация: тенсель постельное белье купить

Другие новости

Новости СМИ2

Главная страница сайта

Новости сайта

03.07.2017

Напоминаем, что на нашем специализированном сайте Метеоцентр.Азия вы можете получить высокодетализированные автоматические прогнозы погоды по пунктам России, СНГ и мира в авиационном формате (включающие направление и скорость ветра, видимость, явления погоды, количество и форму облачности, нижнюю и верхнюю границу облачности).

Рекомендуем: Купить хоккейные нагрудники.

Погода в Изюме - сегодня

Время (UTC), дата Ветер
(°,м/с) 
Видим.   Явления Облачность Т
(°С)
Тd
(°С)
f(%) Тe
(°С)
Pmin
(гПа)
dP
(гПа)
Po
(мм)
O2
(г/м3)
Тmin Tmax R s Состояние
почвы
12 17.09.17 200 (Ю) 20000 м    ясно 
+28.3 +8.8 29 +28  1018.4  -2.2  757  275           
15 17.09.17 200 (Ю) 20000 м  пыль  ясно 
+25.9 +11 39 +26    -1.5             
18 17.09.17 тихо ()   10 км    ясно 
+17.2 +12.3 73 +21  1016.9  -0.4  756  284           
21 17.09.17 тихо ()   10 км    ясно 
+13.5 +11.8 89 +17  1015.9  -1.1  755  288           
00 18.09.17 тихо ()   10 км    ясно 
+12.1 +10.7 91 +14  1015.1  -0.8  754  289           
03 18.09.17 тихо ()   10 км    4/0 средняя, верхняя 
[Ac trans|Cs]
+10.5 +9.3 92 +11  1014.2  -1  754  291        <0.5   
06 18.09.17 160 (Ю) 20000 м    ясно 
+19.4 +12.6 65 +26  1013.8  -0.1  753  281  +10.5  +2.5       
09 18.09.17 160 (Ю) 20000 м    ясно 
+28.9 +12.8 37 +34  1011.7  -1.8  752  272           
12 18.09.17 160 (Ю) 20000 м    ясно 
+33.6 +11.8 27 +37  1009.9  -1.6  751  267           
15 18.09.17 230 (ЮЗ) 20000 м    ясно 
+30.8 +12.8 33 +36  1009.3  -0.7  750  269           
18 18.09.17 тихо ()   10 км    ясно 
+20.3 +15.2 73 +29  1010.3  0.7  751  278    +34.3       
21 18.09.17 320 (СЗ) 10 км    ясно 
+20.3 +13.5 65 +26  1012.1  1.8  752  279           
00 19.09.17 340 (С) 10 км    ясно 
+19.1 +11.4 61 +23  1014.1  1.9  754  282           
03 19.09.17 340 (С) 10 км    3/0 верхняя 
[Ci fib]
+15.2 +10 71 +18  1015.9  1.7  755  286           
06 19.09.17 020 (С) 20000 м    1/0 верхняя 
[Ci fib]
+18.3 +8.1 51 +19  1017  1.2  756  284  +13.7  +2.3       
09 19.09.17 020 (С) 20000 м    3/0 верхняя 
[Ci fib]
+23.6 +5.6 31 +24  1017.1  0.2  756  280           
12 19.09.17 020 (С) 20000 м    3/0 верхняя 
[Ci fib]
+26.2 +1.8 20 +26  1016.5  -0.5  756  278           
15 19.09.17 020 (С) 20000 м    ясно 
+24.3 +2 23 +24  1016.4  -0.2  755  279           
18 19.09.17 320 (СЗ) 10 км    ясно 
+16.8 +4.8 45 +18  1017.8  1.2  756  286    +26.5       
21 19.09.17 320 (СЗ) 10 км    ясно 
+14.7 +5.4 54 +16  1018  0.1  756  288           
00 20.09.17 тихо ()   10 км    ясно 
+12.1 +6.6 69 +12  1018.2  0.1  757  291           
03 20.09.17 тихо ()   10 км    ясно 
+11.7 +6.9 72 +12  1018  -0.2  756  291           
06 20.09.17 110 (В) 20000 м    ясно 
+18.1 +6.3 46 +19  1017.9  0.1  756  285  +11.6  +2.2       
09 20.09.17 090 (В) 20000 м    3/0 средняя 
[Ac cast]
+25.3 +8.1 33 +25  1017  -0.6  756  277           
12 20.09.17 110 (В) 20000 м    ясно 
+28.5 +9.4 30 +29  1015.5  -1.4  755  274           
Время (UTC), дата Ветер
(°,м/с) 
Видим.   Явления Облачность Т
(°С)
Тd
(°С)
f(%) Тe
(°С)
Pmin
(гПа)
dP
(гПа)
Po
(мм)
O2
(г/м3)
Тmin Tmax R s Состояние
почвы

Для получения пояснительной информации подведите курсор к названию столбца.

ПОГОДА в Изюме - архив

Всё, что Вы хотите узнать о погоде в Изюме - удобно и подробно!

Выберите нужную дату (начиная с 1 января 2015* года) и нажмите кнопку "Найти".
Будут отображены архивные сводки погоды по пункту Изюм, начиная с указанной даты.


Отображать данные в формате CSV (для использования в таблицах Excel)


Внимание! Наш архив погоды предназначен исключительно для личного некоммерческого использования в познавательных целях. Если Вам необходимы официальные справки о состоянии погоды (для производственных, юридических, коммерческих и т.п. целей), обращайтесь в органы Росгидромета.

*Примечание: данная дата относится к архиву по метеостанциям СССР (Россия, СНГ, Балтия).
Архив по метеостанциям Зарубежной Европы и Азии (кроме Китая) хранится 10 дней, по другим регионам земного шара (Китай, Африка, Америка, Австралия, Океания) - 1 день.

Изюм - район местоположения метеостанции


Название, широта, долгота, высота метеостанции:
Изюм 49.2°ш. 37.3°д. 78 м над ур. моря [Украина]

Дополнительная информация

В oтличие oт бoльшинства пoгoдных сайтoв мы публикуем пoдрoбную метеoинфoрмацию в детальнoм прoфессиoнальнoм фoрмате.

Характеристики температуры и влажнoсти вoздуха измеряются на высoте 2 м в тени вдали oт зданий и деревьев.
Скoрoсть ветра измеряется на высoте 10 м (на урoвне рoста челoвека скoрoсть ветра ниже в 1.5-2 раза). Если метеoстанция нахoдится в гoрoде или в лесу, тo скoрoсть ветра занижена на 2-4 м/с пo сравнению с oткрытым местoм. Скoрoсть ветра над акватoриями крупных рек и oзёр, а также на вершинах хoлмoв на 2-5 м/с выше, чем в oбычных услoвиях.
Атмoсфернoе давление в разных тoчках местнoсти мoжет значительнo oтличаться oт давления на метеoстанции, в зависимoсти oт услoвий рельефа (при пoдъёме на 10 м давление пoнижается примернo на 1 мм рт.ст.).